TimeEDT,TemperatureF,Dew PointF,Humidity,Sea Level PressureIn,VisibilityMPH,Wind Direction,Wind SpeedMPH,Gust SpeedMPH,PrecipitationIn,Events,Conditions,WindDirDegrees,DateUTC
12:15 AM,41.0,35.6,81,30.03,10.0,WSW,3.5,-,N/A,,Clear,250,2013-06-03 04:15:00
12:35 AM,39.2,35.6,87,30.03,10.0,WSW,5.8,-,N/A,,Clear,250,2013-06-03 04:35:00
12:55 AM,39.2,35.6,87,30.03,10.0,WSW,4.6,-,N/A,,Clear,240,2013-06-03 04:55:00
1:15 AM,39.2,35.6,87,30.03,10.0,West,4.6,-,N/A,,Clear,260,2013-06-03 05:15:00
1:35 AM,39.2,35.6,87,30.03,10.0,West,3.5,-,N/A,,Clear,280,2013-06-03 05:35:00
1:55 AM,39.2,35.6,87,30.03,10.0,Calm,Calm,-,N/A,,Clear,0,2013-06-03 05:55:00
2:15 AM,39.2,35.6,87,30.03,10.0,WNW,3.5,-,N/A,,Clear,290,2013-06-03 06:15:00
2:35 AM,37.4,33.8,87,30.03,10.0,WNW,3.5,-,N/A,,Clear,290,2013-06-03 06:35:00
2:55 AM,35.6,33.8,93,30.03,10.0,Calm,Calm,-,N/A,,Clear,0,2013-06-03 06:55:00
3:15 AM,35.6,33.8,93,30.03,8.0,Calm,Calm,-,N/A,,Clear,0,2013-06-03 07:15:00
3:35 AM,33.8,30.2,87,30.03,1.8,WNW,3.5,-,N/A,,Clear,290,2013-06-03 07:35:00
3:55 AM,35.6,33.8,93,30.03,10.0,Calm,Calm,-,N/A,,Clear,0,2013-06-03 07:55:00
4:15 AM,37.4,35.6,93,30.03,10.0,Calm,Calm,-,N/A,,Clear,0,2013-06-03 08:15:00
4:35 AM,35.6,30.2,81,30.03,10.0,Calm,Calm,-,N/A,,Clear,0,2013-06-03 08:35:00
4:55 AM,33.8,30.2,87,30.03,9.0,WNW,3.5,-,N/A,,Clear,290,2013-06-03 08:55:00
5:15 AM,33.8,30.2,87,30.03,6.0,Calm,Calm,-,N/A,,Clear,0,2013-06-03 09:15:00
5:35 AM,33.8,30.2,87,30.04,3.0,Calm,Calm,-,N/A,,Clear,0,2013-06-03 09:35:00
5:55 AM,33.8,30.2,87,30.04,10.0,Calm,Calm,-,N/A,,Clear,0,2013-06-03 09:55:00
6:15 AM,33.8,30.2,87,30.04,10.0,Calm,Calm,-,N/A,,Clear,0,2013-06-03 10:15:00
6:35 AM,33.8,30.2,87,30.04,10.0,Calm,Calm,-,N/A,,Clear,0,2013-06-03 10:35:00
6:55 AM,33.8,30.2,87,30.04,10.0,WNW,3.5,-,N/A,,Clear,290,2013-06-03 10:55:00
7:15 AM,35.6,33.8,93,30.04,10.0,Calm,Calm,-,N/A,,Clear,0,2013-06-03 11:15:00
7:35 AM,39.2,37.4,93,30.04,10.0,West,4.6,-,N/A,,Clear,270,2013-06-03 11:35:00
7:55 AM,42.8,39.2,87,30.05,10.0,West,6.9,-,N/A,,Clear,280,2013-06-03 11:55:00
8:15 AM,44.6,41.0,87,30.04,10.0,WNW,6.9,-,N/A,,Clear,290,2013-06-03 12:15:00
8:35 AM,46.4,39.2,76,30.05,10.0,WNW,6.9,-,N/A,,Clear,300,2013-06-03 12:35:00
8:55 AM,46.4,39.2,76,30.05,10.0,West,4.6,-,N/A,,Clear,280,2013-06-03 12:55:00
9:15 AM,48.2,37.4,66,30.05,10.0,North,5.8,-,N/A,,Clear,350,2013-06-03 13:15:00
9:35 AM,50.0,37.4,62,30.05,10.0,NW,5.8,-,N/A,,Clear,310,2013-06-03 13:35:00
9:55 AM,51.8,39.2,62,30.05,10.0,NNW,4.6,-,N/A,,Clear,340,2013-06-03 13:55:00
10:15 AM,53.6,37.4,54,30.05,10.0,NW,5.8,-,N/A,,Clear,320,2013-06-03 14:15:00
10:35 AM,55.4,37.4,51,30.05,10.0,NNW,6.9,-,N/A,,Clear,330,2013-06-03 14:35:00
10:55 AM,55.4,35.6,47,30.05,10.0,WNW,4.6,-,N/A,,Clear,290,2013-06-03 14:55:00
11:15 AM,57.2,35.6,44,30.05,10.0,WNW,8.1,-,N/A,,Clear,300,2013-06-03 15:15:00
11:35 AM,57.2,35.6,44,30.05,10.0,NW,4.6,16.1,N/A,,Clear,310,2013-06-03 15:35:00
11:55 AM,59.0,35.6,42,30.04,10.0,WNW,13.8,-,N/A,,Clear,290,2013-06-03 15:55:00
12:15 PM,60.8,35.6,39,30.03,10.0,West,16.1,-,N/A,,Clear,280,2013-06-03 16:15:00
12:35 PM,60.8,33.8,36,30.04,10.0,WNW,12.7,18.4,N/A,,Clear,300,2013-06-03 16:35:00
12:55 PM,60.8,33.8,36,30.04,10.0,NW,11.5,-,N/A,,Partly Cloudy,310,2013-06-03 16:55:00
1:15 PM,60.8,35.6,39,30.04,10.0,SSW,6.9,19.6,N/A,,Partly Cloudy,210,2013-06-03 17:15:00
1:35 PM,62.6,35.6,37,30.04,10.0,WNW,8.1,16.1,N/A,,Partly Cloudy,300,2013-06-03 17:35:00
1:55 PM,59.0,42.8,55,30.04,10.0,SE,9.2,20.7,N/A,,Scattered Clouds,140,2013-06-03 17:55:00
2:15 PM,59.0,42.8,55,30.03,10.0,South,8.1,16.1,N/A,,Scattered Clouds,190,2013-06-03 18:15:00
2:35 PM,57.2,41.0,55,30.03,10.0,SSE,6.9,-,N/A,,Scattered Clouds,150,2013-06-03 18:35:00
2:55 PM,59.0,41.0,51,30.03,10.0,SSE,9.2,-,N/A,,Mostly Cloudy,160,2013-06-03 18:55:00
3:15 PM,60.8,42.8,52,30.03,10.0,South,12.7,-,N/A,,Mostly Cloudy,170,2013-06-03 19:15:00
3:35 PM,59.0,41.0,51,30.02,10.0,SSE,9.2,-,N/A,,Mostly Cloudy,150,2013-06-03 19:35:00
3:55 PM,60.8,41.0,48,30.02,10.0,ESE,8.1,-,N/A,,Mostly Cloudy,120,2013-06-03 19:55:00
4:15 PM,60.8,39.2,45,30.03,10.0,South,8.1,-,N/A,,Overcast,170,2013-06-03 20:15:00
4:35 PM,60.8,37.4,42,30.03,10.0,East,11.5,16.1,N/A,,Mostly Cloudy,100,2013-06-03 20:35:00
4:55 PM,60.8,37.4,42,30.03,10.0,ENE,13.8,19.6,N/A,,Partly Cloudy,70,2013-06-03 20:55:00
5:15 PM,60.8,39.2,45,30.03,10.0,ESE,15.0,-,N/A,,Partly Cloudy,110,2013-06-03 21:15:00
5:35 PM,62.6,35.6,37,30.04,10.0,ENE,12.7,-,N/A,,Clear,70,2013-06-03 21:35:00
5:55 PM,60.8,33.8,36,30.04,10.0,ENE,12.7,-,N/A,,Clear,60,2013-06-03 21:55:00
6:15 PM,60.8,33.8,36,30.05,10.0,NE,10.4,17.3,N/A,,Clear,50,2013-06-03 22:15:00
6:35 PM,60.8,33.8,36,30.05,10.0,ENE,9.2,-,N/A,,Clear,60,2013-06-03 22:35:00
6:55 PM,60.8,33.8,36,30.05,10.0,ENE,10.4,16.1,N/A,,Clear,60,2013-06-03 22:55:00
7:15 PM,59.0,32.0,36,30.05,10.0,ENE,10.4,-,N/A,,Clear,70,2013-06-03 23:15:00
7:35 PM,57.2,30.2,36,30.06,10.0,ENE,11.5,16.1,N/A,,Clear,70,2013-06-03 23:35:00
7:55 PM,57.2,30.2,36,30.06,10.0,ENE,10.4,-,N/A,,Clear,70,2013-06-03 23:55:00
8:15 PM,57.2,30.2,36,30.07,10.0,ENE,8.1,-,N/A,,Clear,70,2013-06-04 00:15:00
8:35 PM,55.4,30.2,38,30.07,10.0,ENE,6.9,-,N/A,,Clear,60,2013-06-04 00:35:00
8:55 PM,55.4,28.4,36,30.07,10.0,NE,5.8,-,N/A,,Clear,50,2013-06-04 00:55:00
9:15 PM,53.6,28.4,38,30.09,10.0,ENE,6.9,-,N/A,,Clear,70,2013-06-04 01:15:00
9:35 PM,53.6,28.4,38,30.09,10.0,Calm,Calm,-,N/A,,Clear,0,2013-06-04 01:35:00
9:55 PM,51.8,30.2,44,30.09,10.0,NE,5.8,-,N/A,,Clear,40,2013-06-04 01:55:00
10:15 PM,51.8,28.4,41,30.11,10.0,NNE,3.5,-,N/A,,Clear,20,2013-06-04 02:15:00
10:35 PM,46.4,33.8,62,30.12,10.0,Calm,Calm,-,N/A,,Clear,0,2013-06-04 02:35:00
10:55 PM,44.6,35.6,71,30.12,10.0,Calm,Calm,-,N/A,,Clear,0,2013-06-04 02:55:00
11:15 PM,44.6,33.8,66,30.13,10.0,Calm,Calm,-,N/A,,Clear,0,2013-06-04 03:15:00
11:35 PM,44.6,33.8,66,30.14,10.0,Calm,Calm,-,N/A,,Clear,0,2013-06-04 03:35:00
11:55 PM,42.8,35.6,76,30.14,10.0,Calm,Calm,-,N/A,,Clear,0,2013-06-04 03:55:00